Location: Treviso
(45.6669°N, 12.2430°E)
Time: 01:04:22
(UTC+01:00)

OTV 5 (USA 277) - Visible Passes

Search period start: 20 February 2019 00:00
Search period end: 02 March 2019 00:00
Orbit: 342 x 346 km, 54.5° (Epoch: 17 February)

Date Brightness Start Highest point End Pass type
(mag) Time Alt. Az. Time Alt. Az. Time Alt. Az.
23 Feb ? 19:37:12 10° SSW 19:38:25 21° SSW 19:38:25 21° SSW visible
24 Feb ? 18:27:26 10° SSE 18:29:00 14° SE 18:30:29 10° E visible
24 Feb ? 20:00:41 10° WSW 20:01:57 23° WSW 20:01:57 23° WSW visible
25 Feb ? 18:49:39 10° SSW 18:52:23 39° SE 18:53:53 21° E visible
25 Feb ? 20:24:48 10° W 20:25:21 14° W 20:25:21 14° W visible
26 Feb ? 19:13:07 10° WSW 19:15:59 66° NNW 19:17:09 31° NE visible
27 Feb ? 19:37:12 10° W 19:39:47 28° NNW 19:40:19 26° N visible
28 Feb ? 18:25:32 10° WSW 18:28:25 69° NNW 18:31:18 10° NE visible
28 Feb ? 20:01:38 10° WNW 20:03:23 18° NNW 20:03:23 18° NNW visible
01 Mar ? 18:49:36 10° W 18:52:12 29° NNW 18:54:49 10° NE visible
01 Mar ? 20:26:04 10° NW 20:26:23 11° NW 20:26:23 11° NW visible
